Mobile, AL

1:46 AM CDT on March 27, 2017 (GMT -0500)
Mobile Regional

Weather History for KMOB - September, 2013

Change the Weather History Date:

Wednesday, September 4, 2013

  Actual Average Record
Temperature  
Mean Temperature 82 °F 80 °F  
Max Temperature 92 °F 89 °F 99 °F (1990)
Min Temperature 72 °F 71 °F 59 °F (1952)
Degree Days  
Heating Degree Days 0 0  
Month to date heating degree days 0 0  
Since 1 July heating degree days 0 0  
Cooling Degree Days 17 15  
Month to date cooling degree days 72 62  
Year to date cooling degree days 1902 1989  
Growing Degree Days 32 (Base 50)    
Moisture  
Dew Point 72 °F    
Average Humidity 75    
Maximum Humidity 94    
Minimum Humidity 56    
Precipitation  
Precipitation 1.28 in 0.18 in 3.55 in (2011)
Month to date precipitation 2.71 0.72  
Year to date precipitation 54.41 47.88  
Sea Level Pressure  
Sea Level Pressure 30.03 in    
Wind  
Wind Speed 2 mph (WNW)    
Max Wind Speed 17 mph    
Max Gust Speed 23 mph    
Visibility 7 miles    
Events Rain , Thunderstorm    
T = Trace of Precipitation, MM = Missing Value Source: NWS Daily Summary

Daily Weather History Graph

Daily Weather History Graph

Search for Another Location

Airport or City:

Trip Planner

Search our weather history database for the weather conditions in past years. The results will help you decide how hot, cold, wet, or windy it might be!

Date:

Astronomy

Sep. 04, 2013 Rise Set
Actual Time 6:31 AM CDT 7:11 PM CDT
Civil Twilight 6:06 AM CDT 7:36 PM CDT
Nautical Twilight 5:38 AM CDT 8:05 PM CDT
Astronomical Twilight 5:08 AM CDT 8:34 PM CDT
Moon 5:42 AM CDT (9/4) 6:33 PM CDT (9/4)
Length of Visible Light 13h 29m
Length of Day
12h 40m
Waning Crescent, 1% of the Moon is Illuminated
Sep 4
Waning Crescent
Sep 5
New
Sep 12
First Quarter
Sep 19
Full
Sep 26
Last Quarter

Hourly Weather History & Observations

Time (CDT) Temp. Heat Index Dew Point Humidity Pressure Visibility Wind Dir Wind Speed Gust Speed Precip Events Conditions
12:56 AM 72.0 °F - 69.1 °F 91% 29.98 in 10.0 mi NNE 3.5 mph - N/A   Scattered Clouds
1:56 AM 72.0 °F - 69.1 °F 91% 29.98 in 10.0 mi NE 3.5 mph - N/A   Clear
2:56 AM 72.0 °F - 69.1 °F 91% 29.97 in 10.0 mi Calm Calm - N/A   Clear
3:56 AM 72.0 °F - 69.1 °F 91% 29.97 in 10.0 mi ESE 3.5 mph - N/A   Clear
4:34 AM 71.6 °F - 69.8 °F 94% 29.99 in 10.0 mi Calm Calm - N/A   Scattered Clouds
4:56 AM 72.0 °F - 69.1 °F 91% 29.98 in 10.0 mi Calm Calm - N/A   Partly Cloudy
5:56 AM 72.0 °F - 69.1 °F 91% 30.00 in 4.0 mi Calm Calm - N/A   Scattered Clouds
6:56 AM 72.0 °F - 70.0 °F 93% 30.02 in 7.0 mi Calm Calm - N/A   Mostly Cloudy
7:56 AM 75.9 °F - 72.0 °F 87% 30.04 in 10.0 mi Calm Calm - N/A   Mostly Cloudy
8:56 AM 80.1 °F 85.1 °F 75.0 °F 85% 30.06 in 7.0 mi SE 3.5 mph - N/A   Scattered Clouds
9:56 AM 84.9 °F 94.1 °F 75.9 °F 74% 30.07 in 10.0 mi South 3.5 mph - N/A   Mostly Cloudy
10:12 AM 84.2 °F 92.3 °F 75.2 °F 74% 30.09 in 10.0 mi Variable 4.6 mph - N/A   Mostly Cloudy
10:56 AM 87.1 °F 94.5 °F 73.0 °F 63% 30.07 in 10.0 mi Calm Calm - N/A   Mostly Cloudy
11:03 AM 86.0 °F 93.4 °F 73.4 °F 66% 30.08 in 10.0 mi SSW 3.5 mph - N/A   Mostly Cloudy
11:56 AM 89.1 °F 96.0 °F 72.0 °F 57% 30.07 in 10.0 mi Calm Calm - N/A   Mostly Cloudy
12:56 PM 91.0 °F 100.4 °F 73.9 °F 57% 30.05 in 10.0 mi Variable 4.6 mph - N/A   Scattered Clouds
1:56 PM 86.0 °F 93.8 °F 73.9 °F 67% 30.04 in 10.0 mi SSE 10.4 mph - N/A   Mostly Cloudy
2:56 PM 89.1 °F 94.1 °F 70.0 °F 53% 30.01 in 10.0 mi South 8.1 mph - 0.00 in Thunderstorm Thunderstorm
3:47 PM 80.6 °F 85.4 °F 73.4 °F 79% 30.02 in 1.8 mi SW 15.0 mph 20.7 mph 0.02 in Rain , Thunderstorm Heavy Thunderstorms and Rain
3:56 PM 77.0 °F - 69.1 °F 76% 30.01 in 1.0 mi West 9.2 mph 23.0 mph 0.28 in Rain , Thunderstorm Heavy Thunderstorms and Rain
4:09 PM 75.2 °F - 71.6 °F 89% 30.02 in 2.0 mi West 11.5 mph - 0.34 in Rain , Thunderstorm Thunderstorms and Rain
4:27 PM 77.0 °F - 73.4 °F 89% 30.02 in 2.5 mi NW 9.2 mph - 0.51 in Rain Rain
4:32 PM 77.0 °F - 73.4 °F 89% 30.03 in 2.5 mi NW 8.1 mph - 0.52 in Rain , Thunderstorm Thunderstorms and Rain
4:56 PM 75.9 °F - 73.0 °F 91% 30.04 in 2.5 mi North 6.9 mph - 0.63 in Rain , Thunderstorm Thunderstorms and Rain
5:06 PM 75.2 °F - 73.4 °F 94% 30.05 in 1.5 mi NNW 6.9 mph - 0.11 in Rain , Thunderstorm Heavy Thunderstorms and Rain
5:19 PM 77.0 °F - 75.2 °F 94% 30.04 in 2.0 mi Calm Calm - 0.34 in Rain , Thunderstorm Heavy Thunderstorms and Rain
5:27 PM 78.8 °F - 75.2 °F 89% 30.04 in 4.0 mi ESE 5.8 mph - 0.36 in Rain Rain
5:56 PM 78.1 °F - 75.0 °F 90% 30.03 in 6.0 mi Calm Calm - 0.37 in   Mostly Cloudy
6:56 PM 77.0 °F - 73.9 °F 90% 30.04 in 6.0 mi Calm Calm - N/A   Mostly Cloudy
7:56 PM 77.0 °F - 73.9 °F 90% 30.04 in 5.0 mi Calm Calm - 0.01 in   Mostly Cloudy
8:56 PM 77.0 °F - 73.9 °F 90% 30.07 in 6.0 mi Calm Calm - N/A   Mostly Cloudy
9:56 PM 77.0 °F - 73.9 °F 90% 30.08 in 6.0 mi Calm Calm - N/A   Scattered Clouds
10:56 PM 77.0 °F - 73.9 °F 90% 30.08 in 7.0 mi North 4.6 mph - N/A   Scattered Clouds
11:56 PM 75.9 °F - 73.0 °F 91% 30.07 in 10.0 mi Calm Calm - N/A   Clear